     2              OBSERVATION DATA    GPS                 RINEX VERSION / TYPE
teqc 1998Mar9 19980311 23:34:27UTC                          PGM / RUN BY / DATE
                                                            COMMENT
Original Marker Name: unknown                               COMMENT
Campaign Name: Cholame 1989                                 COMMENT
4-Character Station Name: P807                              COMMENT
6-Character Antenna Code: TI4100                            COMMENT
Vertical Measurement Point: PAE                             COMMENT
Vertical Offset to Rinex Ref. Point: 0.0000                 COMMENT
Radial Measurement Point: PAE                               COMMENT
Radial Offset to Rinex Ref. Point: 0.0842                   COMMENT
Antenna Height from Field Measurement: 1.2150 m             COMMENT
Original XYZ: 0.0000 0.0000 0.0000                          COMMENT
New XYZ position is based on association with SCEC monument COMMENT
E1F1F2B2+0011. Position of that monument is believed to be  COMMENT
valid to within 1 m horizontally; vertical accuracy         COMMENT
should be no worse than 3-times this value.                 COMMENT
                                                            COMMENT
Revised Rinex header created by UCSD GPS archive for        COMMENT
GSAC on 14-Apr-1999 (1999:104) 22:42:08 GMT                 COMMENT
For assistance contact dagnew@ucsd.edu or hjohnson@ucsd.edu COMMENT
                                                            COMMENT
P807                                                        MARKER NAME
unknown UCLA                                                OBSERVER / AGENCY
UN06 TI 4100 2.1                                            REC # / TYPE / VERS
UN06 TI 4100                                                ANT # / TYPE
 -2584426.0000 -4502907.0000  3692603.0000                  APPROX POSITION XYZ
        1.2121        0.0000        0.0000                  ANTENNA: DELTA H/E/N
     1     1     0                                          WAVELENGTH FACT L1/2
     4    P1    P2    L1    L2                              # / TYPES OF OBSERV
     0                                                      INTERVAL
  1989    11    10    10    21   59.000000                  TIME OF FIRST OBS
  1989    11    10    17     9   59.000000                  TIME OF LAST OBS
     0                                                      # OF SATELLITES
                                                            END OF HEADER
 89 11 10 10 21 59.0800000  0  3G 2G 6G11
  21355952.313    21355954.854     2530377.087 9   -451548.760 8
  20405248.879    20405251.897     1534794.111 9  -2958935.833 8
  22224908.520    22224912.303      862046.536 8  -3410962.164 9
 89 11 10 10 22 29.0800000  0  3G 2G 6G11
  21370527.897    21370530.839     2606970.807 9   -391865.367 9
  20394622.805    20394626.507     1478951.562 9  -3002449.506 8
  22204033.221    22204038.515      752349.504 8  -3496440.326 9
 89 11 10 10 22 59.0800000  0  3G 2G 6G11
  21385119.349    21385122.213     2683647.336 9   -332117.452 8
  20384017.411    20384018.678     1423213.696 9  -3045881.586 8
  22183189.389    22183194.700      642817.621 7  -3581789.759 9
 89 11 10 10 23 29.0800000  0  3G 2G 6G11
  21399725.863    21399728.743     2760406.211 7   -272305.386 9
  20373429.752    20373431.265     1367581.699 9  -3089231.201 8
  22162378.803    22162384.075      533453.712 7  -3667008.317 8
 89 11 10 10 23 59.0800000  0  3G 2G 6G11
  21414348.013    21414351.449     2837246.432 7   -212429.927 9
  20362863.658    20362865.115     1312056.993 9  -3132497.201 8
  22141599.530    22141605.435      424260.903 8  -3752093.569 9
 89 11 10 10 24 29.0800000  0  3G 2G 6G11
  21428985.160    21428989.049     2914166.223 8   -152492.453 9
  20352318.743    20352320.401     1256641.006 9  -3175678.470 7
  22120854.701    22120858.641      315242.306 8  -3837043.069 8
 89 11 10 10 24 59.0800000  0  3G 2G 6G11
  21443636.260    21443640.681     2991164.807 8    -92493.614 8
  20341794.632    20341796.039     1201334.897 9  -3218774.132 8
  22100143.564    22100147.195      206400.884 9  -3921854.573 8
 89 11 10 10 25 29.0800000  0  3G 2G 6G11
  21458304.789    21458308.646     3068241.520 8    -32433.863 9
  20331290.937    20331292.401     1146139.930 9  -3261783.191 8
  22079466.082    22079470.121       97739.526 9  -4006525.743 8
 89 11 10 10 25 59.0800000  0  4G 2G 6G11G 9
  21472987.184    21472989.958     3145395.261 8     27685.898 8
  20320808.065    20320811.674     1091057.532 9  -3304704.531 8
  22058823.293    22058827.705      -10738.869 9  -4091054.339 8
  23167778.229    23167782.176    -1361228.253 9   1712133.318 7
 89 11 10 10 26 29.0800000  0  4G 2G 6G11G 9
  21487682.769    21487685.522     3222624.867 9     87864.785 8
  20310348.581    20310350.522     1036088.645 9  -3347537.427 8
  22038216.335    22038220.290     -119031.398 9  -4175438.124 8
  23151395.633    23151397.908    -1447326.436 8   1645043.871 7
 89 11 10 10 26 59.0800000  0  4G 2G 6G11G 9
  21502393.835    21502397.049     3299928.552 9    148101.396 9
  20299910.837    20299912.964      981234.633 9  -3390280.819 8
  22017644.364    22017648.979     -227135.242 9  -4259674.866 8
  23135002.103    23135004.285    -1533469.692 8   1577919.302 7
 89 11 10 10 27 29.0800000  0  4G 2G 6G11G 9
  21517117.701    21517121.647     3377305.849 9    208395.357 8
  20289493.998    20289495.598      926496.932 9  -3432933.554 8
  21997108.805    21997114.551     -335047.619 9  -4343762.398 8
  23118601.604    23118604.528    -1619657.286 7   1510760.171 8
 89 11 10 10 27 59.0800000  0  4G 2G 6G11G 9
  21531856.052    21531859.480     3454755.573 8    268745.765 8
  20279100.549    20279102.480      871877.037 9  -3475494.499 8
  21976610.587    21976616.556     -442765.208 9  -4427698.160 9
  23102191.579    23102195.868    -1705888.467 7   1443567.085 9
 89 11 10 10 28 29.0800000  0  4G 2G 6G11G 9
  21546607.411    21546610.030     3532276.961 9    329151.997 9
  20268729.369    20268732.074      817376.200 9  -3517962.678 8
  21956150.794    21956156.206     -550285.024 9  -4511479.807 9
  23085773.966    23085778.169    -1792162.897 8   1376340.324 8
 89 11 10 10 28 59.0800000  0  4G 2G 6G11G 9
  21561374.239    21561376.768     3609869.232 9    389613.509 9
  20258380.906    20258383.751      762995.943 9  -3560336.899 9
  21935728.634    21935733.764     -657604.205 9  -4595105.082 9
  23069348.004    23069351.579    -1878479.863 7   1309080.363 7
 89 11 10 10 29 29.0800000  0  4G 2G 6G11G 9
  21576151.152    21576155.415     3687530.918 9    450129.077 8
  20248055.740    20248059.384      708737.405 9  -3602616.264 8
  21915345.152    21915349.260     -764719.792 9  -4678571.714 9
  23052914.026    23052918.167    -1964838.992 6   1241787.576 9
 89 11 10 10 29 59.0800000  0  4G 2G 6G11G 9
  21590942.509    21590946.709     3765261.330 9    510698.197 9
  20237755.175    20237757.038      654601.934 9  -3644799.743 8
  21895000.503    21895005.102     -871629.338 7  -4761877.777 9
  23036474.361    23036475.983    -2051239.584 7   1174462.491 8
 89 11 10 10 30 29.0800000  0  4G 2G 6G11G 9
  21605748.176    21605751.153     3843059.092 8    571319.807 9
  20227475.888    20227478.906      600591.148 9  -3686886.052 8
  21874697.676    21874701.227     -978329.483 8  -4845020.673 9
  23020023.706    23020026.783    -2137681.133 7   1107105.495 7
 89 11 10 10 30 59.0800000  0  4G 2G 6G11G 9
  21620564.776    21620568.316     3920923.056 9    631993.005 8
  20217222.816    20217224.027      546706.326 9  -3728874.218 8
  21854432.220    21854437.297    -1084817.317 9  -4927998.167 9
  23003567.614    23003569.649    -2224162.815 9   1039717.193 9
 89 11 10 10 31 29.0800000  0  4G 2G 6G11G 9
  21635394.827    21635397.856     3998852.737 9    692717.411 9
  20206992.777    20206994.622      492949.005 9  -3770763.010 7
  21834209.910    21834213.021    -1191089.858 9  -5010807.884 9
  22987102.686    22987105.267    -2310684.230 9    972297.939 8
 89 11 10 10 31 59.0800000  0  4G 2G 6G11G 9
  21650236.100    21650239.242     4076847.401 8    753492.442 9
  20196788.240    20196789.668      439320.445 8  -3812551.498 8
  21814028.527    21814031.578    -1297144.315 9  -5093447.689 9
  22970630.819    22970633.415    -2397244.772 9    904848.172 8
 89 11 10 10 32 29.0800000  0  4G 2G 6G11G 9
  21665090.929    21665094.675     4154906.169 8    814317.413 9
  20186607.267    20186609.289      385822.258 9  -3854238.383 8
  21793888.923    21793892.393    -1402977.376 9  -5175914.994 9
  22954152.085    22954154.215    -2483843.439 9    837368.682 8
 89 11 10 10 32 59.0800000  0  4G 2G 6G11G 9
  21679956.896    21679959.467     4233027.424 8    875191.101 9
  20176451.051    20176453.508      332455.960 9  -3895822.502 7
  21773791.381    21773795.679    -1508586.333 9  -5258207.634 8
  22937667.103    22937668.218    -2570479.794 9    769859.866 9
 89 11 10 10 33 29.0800000  0  4G 2G 6G11G 9
  21694833.226    21694837.753     4311210.202 8    936112.695 9
  20166321.893    20166323.371      279222.800 9  -3937302.879 8
  21753738.885    21753740.877    -1613968.272 9  -5340323.406 8
  22921172.228    22921174.754    -2657153.229 9    702322.127 8
 89 11 10 10 33 59.0800000  0  4G 2G 6G11G 9
  21709723.853    21709726.145     4389454.044 8    997081.893 9
  20156218.149    20156219.793      226124.213 9  -3978678.371 8
  21733728.797    21733732.461    -1719120.282 9  -5422260.040 8
  22904670.888    22904673.831    -2743863.108 9    634756.027 8
 89 11 10 10 34 29.0800000  0  4G 2G 6G11G 9
  21724624.534    21724627.085     4467758.041 9   1058097.969 9
  20146139.357    20146142.603      173161.805 9  -4019947.789 8
  21713762.172    21713767.860    -1824039.732 9  -5504015.425 8
  22888164.498    22888166.942    -2830608.794 9    567162.021 8
 89 11 10 10 34 59.0800000  0  4G 2G 6G11G 9
  21739537.486    21739539.834     4546121.318 8   1119160.237 9
  20136086.824    20136088.325      120337.070 9  -4061109.921 9
  21693842.097    21693845.452    -1928723.515 8  -5585587.171 8
  22871650.980    22871652.062    -2917389.265 9    499540.902 8
 89 11 10 10 35 29.0800000  0  4G 2G 6G11G 9
  21754458.969    21754462.621     4624542.441 8   1180267.558 8
  20126061.488    20126063.494       67651.591 9  -4102163.534 8
  21673966.072    21673970.938    -2033168.532 9  -5666972.871 8
  22855129.479    22855133.797    -3004204.081 9    431893.000 8
 89 11 10 10 35 59.0800000  0  4G 2G 6G11G 9
  21769392.531    21769396.809     4703020.610 8   1241419.342 9
  20116062.662    20116065.335       15106.796 9  -4143107.517 8
  21654137.675    21654143.223    -2137371.951 8  -5748170.296 9
  22838603.531    22838606.280    -3091052.339 8    364219.047 8
 89 11 10 10 36 29.0800000  0  4G 2G 6G11G 9
  21784337.761    21784341.446     4781555.439 8   1302615.278 9
  20106090.125    20106093.650      -37295.865 9  -4183940.745 9
  21634354.847    21634359.003    -2241331.499 9  -5829177.689 9
  22822070.822    22822073.601    -3177933.356 8    296519.558 8
 89 11 10 10 36 59.0800000  0  4G 2G 6G11G 9
  21799293.331    21799297.852     4860146.108 8   1363854.726 8
  20096145.730    20096147.840      -89554.628 9  -4224661.862 8
  21614619.732    21614623.163    -2345043.772 8  -5909992.415 8
  22805530.669    22805535.085    -3264846.297 8    228795.212 7
 89 11 10 10 37 29.0800000  0  4G 2G 6G11G 9
  21814258.620    21814262.345     4938791.205 9   1425136.580 9
  20086228.548    20086231.314     -141668.079 9  -4265269.721 8
  21594930.939    21594934.919    -2448505.768 9  -5990612.123 8
  22788986.204    22788988.977    -3351790.618 8    161046.387 8
 89 11 10 10 37 59.0800000  0  4G 2G 6G11G 9
  21829234.022    21829238.783     5017489.835 9   1486460.153 8
  20076340.278    20076342.387     -193634.810 9  -4305763.259 8
  21575291.108    21575295.975    -2551714.721 9  -6071034.649 9
  22772435.598    22772439.429    -3438765.673 9     93273.619 8
 89 11 10 10 38 29.0800000  0  4G 2G 6G11G 9
  21844220.724    21844224.101     5096241.029 9   1547824.694 9
  20066480.138    20066481.682     -245453.357 9  -4346141.332 9
  21555699.264    21555703.740    -2654668.080 8  -6151257.981 9
  22755879.086    22755881.066    -3525770.506 8     25477.656 7
 89 11 10 10 38 59.0800000  0  4G 2G 6G11G 9
  21859216.267    21859219.655     5175044.254 9   1609229.775 8
  20056647.409    20056648.933     -297121.822 9  -4386402.469 8
  21536157.238    21536161.476    -2757362.654 9  -6231279.700 9
  22739317.523    22739319.737    -3612804.184 8    -42340.758 7
 89 11 10 10 39 29.0800000  0  4G 2G 6G11G 9
  21874221.539    21874224.886     5253898.949 9   1670674.954 8
  20046844.254    20046846.591     -348638.972 9  -4426545.695 8
  21516664.353    21516668.644    -2859795.650 9  -6311097.594 8
  22722749.403    22722752.097    -3699866.074 8   -110181.194 7
 89 11 10 10 39 59.0800000  0  4G 2G 6G11G 9
  21889237.146    21889240.625     5332803.990 9   1732159.382 8
  20037069.560    20037072.373     -400002.963 9  -4466569.568 8
  21497223.270    21497226.487    -2961964.271 9  -6390709.444 8
  22706176.350    22706179.495    -3786955.605 7   -178043.109 7
 89 11 10 10 40 29.0800000  0  4G 2G 6G11G 9
  21904261.310    21904265.422     5411758.230 9   1793682.152 7
  20027323.911    20027326.929     -451212.486 9  -4506473.090 8
  21477830.681    21477834.598    -3063865.992 9  -6470113.365 9
  22689598.275    22689602.506    -3874071.710 7   -245925.743 8
 89 11 10 10 40 59.0800000  0  4G 2G 6G11G 9
  21919295.458    21919298.218     5490761.542 9   1855243.154 9
  20017609.309    20017611.308     -502265.655 9  -4546254.769 9
  21458490.976    21458495.772    -3165497.344 9  -6549306.587 8
  22673015.919    22673019.687    -3961213.825 8   -313828.650 7
 89 11 10 10 41 29.0800000  0  4G 2G 6G11G 9
  21934338.221    21934342.084     5569812.639 9   1916841.381 9
  20007923.667    20007926.259     -553160.864 9  -4585913.377 8
  21439204.522    21439207.893    -3266855.705 9  -6628287.095 8
  22656430.101    22656433.005    -4048380.681 8   -381750.843 8
 89 11 10 10 41 59.0800000  0  4G 2G 6G11G 9
  21949390.880    21949393.540     5648910.301 9   1978475.884 9
  19998269.885    19998272.447     -603896.747 9  -4625447.819 8
  21419969.408    21419971.924    -3367938.676 9  -6707053.022 8
  22639838.137    22639840.960    -4135571.734 9   -449691.915 7
 89 11 10 10 42 29.0800000  0  4G 2G 6G11G 9
  21964451.591    21964454.249     5728054.689 8   2040146.810 9
  19988645.593    19988647.979     -654471.602 9  -4664856.792 8
  21400786.774    21400788.899    -3468743.140 9  -6785601.935 8
  22623241.116    22623244.571    -4222786.042 9   -517651.103 7
 89 11 10 10 42 59.0800000  0  4G 2G 6G11G 9
  21979520.468    21979522.851     5807244.718 7   2101853.288 8
  19979052.033    19979055.972     -704883.742 9  -4704138.974 8
  21381656.702    21381661.330    -3569266.090 9  -6863931.479 9
  22606640.866    22606644.664    -4310022.988 9   -585627.945 8
 89 11 10 10 43 29.0800000  0  4G 2G 6G11G 9
  21994597.542    21994601.528     5886479.082 8   2163594.308 8
  19969490.153    19969493.949     -755131.615 9  -4743293.143 8
  21362581.775    21362584.734    -3669505.069 9  -6942039.732 9
  22590036.091    22590038.730    -4397281.589 9   -653621.647 9
 89 11 10 10 43 59.0800000  0  4G 2G 6G11G 9
  22009682.981    22009687.392     5965757.723 8   2225369.855 9
  19959960.238    19959963.476     -805213.118 9  -4782317.683 8
  21343561.870    21343565.486    -3769456.764 9  -7019924.135 9
  22573427.503    22573430.057    -4484560.387 9   -721631.085 8
 89 11 10 10 44 29.0800000  0  4G 2G 6G11G 9
  22024779.028    22024782.459     6045079.883 8   2287179.284 9
  19950462.655    19950464.269     -855126.967 9  -4821211.562 8
  21324597.090    21324601.431    -3869118.670 9  -7097582.728 9
  22556814.547    22556817.679    -4571858.851 9   -789655.848 9
 89 11 10 10 44 59.0800000  0  4G 2G 6G11G 9
  22039881.172    22039885.078     6124444.280 8   2349021.644 8
  19940996.421    19940998.199     -904871.593 8  -4859973.604 8
  21305687.556    21305691.296    -3968488.089 9  -7175013.382 8
  22540199.465    22540201.536    -4659176.312 8   -857695.401 9
 89 11 10 10 45 29.0800000  0  4G 2G 6G11G 9
  22054992.100    22054994.948     6203850.172 8   2410896.309 9
  19931562.933    19931565.212     -954445.239 9  -4898602.413 8
  21286834.346    21286838.035    -4067562.512 9  -7252214.227 8
  22523579.390    22523583.171    -4746511.716 8   -925748.932 8
 89 11 10 10 45 59.0800000  0  4G 2G 6G11G 9
  22070108.949    22070114.177     6283296.906 8   2472802.818 9
  19922162.358    19922164.650    -1003846.211 9  -4937096.677 8
  21268038.280    21268041.650    -4166339.016 9  -7329182.881 8
  22506956.984    22506959.570    -4833864.114 9   -993815.708 8
 89 11 10 10 46 29.0800000  0  4G 2G 6G11G 9
  22085236.106    22085240.080     6362783.894 8   2534740.703 9
  19912794.454    19912796.800    -1053072.584 9  -4975454.879 8
  21249298.483    21249302.611    -4264814.303 9  -7405916.827 8
  22490332.206    22490334.816    -4921232.460 9  -1061894.911 9
 89 11 10 10 46 59.0800000  0  4G 2G 6G11G 9
  22100369.230    22100373.215     6442310.338 8   2596709.308 9
  19903459.857    19903463.012    -1102122.763 9  -5013675.784 8
  21230617.101    21230621.558    -4362985.751 9  -7482414.043 9
  22473703.483    22473706.667    -5008615.530 9  -1129985.619 9
 89 11 10 10 47 29.0800000  0  4G 2G 6G11G 9
  22115509.670    22115513.526     6521875.388 9   2658708.010 8
  19894160.080    19894163.414    -1150995.276 9  -5051758.261 8
  21211994.459    21211997.894    -4460851.173 9  -7558672.781 9
  22457071.455    22457074.125    -5096012.764 9  -1198087.352 9
 89 11 10 10 47 59.0800000  0  4G 2G 6G11G 9
  22130657.400    22130661.162     6601478.114 8   2720736.069 9
  19884894.932    19884897.366    -1199687.907 8  -5089700.557 8
  21193428.729    21193433.214    -4558407.159 9  -7634690.409 9
  22440438.271    22440439.049    -5183422.986 9  -1266199.210 8
 89 11 10 10 48 29.0800000  0  4G 2G 6G11G 9
  22145812.457    22145816.505     6681118.131 8   2782793.174 9
  19875663.081    19875665.206    -1248199.294 9  -5127501.635 9
  21174923.898    21174927.901    -4655651.240 9  -7710464.979 8
  22423802.222    22423805.680    -5270845.370 9  -1334320.546 9
 89 11 10 10 48 59.0800000  0  4G 2G 6G11G 9
  22160975.413    22160978.971     6760795.042 9   2844879.038 8
  19866465.752    19866468.264    -1296527.530 9  -5165159.975 8
  21156480.099    21156483.396    -4752580.619 9  -7785994.332 9
  22407163.404    22407166.624    -5358278.811 8  -1402450.476 8
 89 11 10 10 49 29.0800000  0  4G 2G 6G11G 9
  22176144.142    22176147.257     6840507.590 9   2906992.686 8
  19857305.204    19857307.935    -1344671.252 8  -5202674.565 9
  21138092.959    21138097.960    -4849193.210 9  -7861276.824 9
  22390524.586    22390526.378    -5445722.552 7  -1470588.412 8
 89 11 10 10 49 59.0800000  0  4G 2G 6G11G 9
  22191320.289    22191323.076     6920255.569 8   2969133.949 8
  19848178.809    19848180.858    -1392628.122 9  -5240043.537 8
  21119770.358    21119774.500    -4945485.645 9  -7936309.868 9
  22373881.359    22373885.818    -5533175.108 7  -1538733.223 8
 89 11 10 10 50 29.0800000  0  4G 2G 6G11G 9
  22206500.927    22206503.876     7000037.985 9   3031302.028 9
  19839088.792    19839091.594    -1440396.695 9  -5277265.782 8
  21101506.292    21101511.135    -5041455.611 9  -8011091.622 8
  22357239.701    22357242.354    -5620635.650 8  -1606884.257 7
 89 11 10 10 50 59.0800000  0  4G 2G 6G11G 9
  22221689.126    22221694.030     7079854.111 9   3093496.379 8
  19830035.373    19830036.971    -1487975.352 9  -5314340.076 8
  21083306.363    21083311.878    -5137100.342 9  -8085619.937 9
  22340594.780    22340596.801    -5708103.016 8  -1675040.628 8
 89 11 10 10 51 29.0800000  0  4G 2G 6G11G 9
  22236884.925    22236888.942     7159703.372 9   3155716.545 8
  19821017.424    19821021.097    -1535361.934 9  -5351264.671 9
  21065167.935    21065173.198    -5232416.971 9  -8159892.603 9
  22323947.863    22323951.280    -5795576.269 8  -1743201.593 8
 89 11 10 10 51 59.0800000  0  4G 2G 6G11G 9
  22252086.154    22252089.886     7239585.112 9   3217962.004 9
  19812036.895    19812038.964    -1582555.058 9  -5388038.519 8
  21047094.122    21047097.409    -5327402.902 9  -8233907.566 9
  22307300.417    22307305.871    -5883054.416 8  -1811366.355 8
 89 11 10 10 52 29.0800000  0  4G 2G 6G11G 9
  22267293.884    22267296.959     7319498.966 9   3280232.510 8
  19803093.572    19803096.646    -1629552.662 9  -5424660.003 8
  21029082.592    21029085.865    -5422055.450 9  -8307662.770 9
  22290655.171    22290657.595    -5970536.269 7  -1879533.972 8
 89 11 10 10 52 59.0800000  0  4G 2G 6G11G 9
  22282506.940    22282509.860     7399444.046 9   3342527.352 9
  19794187.450    19794189.225    -1676353.075 9  -5461127.836 8
  21011133.254    21011137.721    -5516371.795 9  -8381155.996 8
  22274009.134    22274008.704    -6058020.603 8  -1947703.578 7
 89 11 10 10 53 29.0800000  0  4G 2G 6G11G 9
  22297725.698    22297729.000     7479419.482 9   3404845.853 9
  19785319.374    19785322.150    -1722954.344 8  -5497440.502 8
  20993252.184    20993255.162    -5610349.361 8  -8454385.235 8
  22257360.336    22257362.457    -6145506.378 9  -2015874.318 7
 89 11 10 10 53 59.0800000  0  4G 2G 6G11G 9
  22312949.865    22312953.264     7559424.967 9   3467187.749 8
  19776489.938    19776492.403    -1769354.767 9  -5533596.676 8
  20975433.365    20975436.381    -5703985.618 8  -8527348.529 9
  22240712.270    22240715.195    -6232992.555 9  -2084045.397 7
 89 11 10 10 54 29.0800000  0  4G 2G 6G11G 9
  22328180.470    22328183.303     7639459.805 8   3529552.525 8
  19767699.324    19767701.920    -1815552.580 9  -5569594.978 8
  20957680.292    20957683.571    -5797277.922 9  -8600043.813 8
  22224063.532    22224066.192    -6320477.836 9  -2152215.763 7
 89 11 10 10 54 59.0800000  0  4G 2G 6G11G 9
  22343415.108    22343418.981     7719523.193 9   3591939.570 8
  19758947.231    19758949.467    -1861545.690 9  -5605433.740 8
  20939993.091    20939995.997    -5890223.498 9  -8672468.913 9
  22207415.411    22207418.033    -6407961.225 9  -2220384.627 7
 89 11 10 10 55 29.0800000  0  4G 2G 6G11G 9
  22358656.014    22358659.471     7799614.634 7   3654348.466 9
  19750234.374    19750234.671    -1907332.521 9  -5641111.778 8
  20922372.495    20922376.003    -5982819.770 9  -8744621.828 8
  22190769.410    22190771.034    -6495441.502 9  -2288551.054 8
 89 11 10 10 55 59.0800000  0  4G 2G 6G11G 9
  22373901.273    22373904.403     7879733.835 8   3716778.956 9
  19741559.954    19741562.949    -1952911.163 9  -5676627.599 8
  20904818.944    20904823.143    -6075064.559 9  -8816500.862 9
  22174124.365    22174125.844    -6582917.629 9  -2356714.234 9
 89 11 10 10 56 29.0800000  0  4G 2G 6G11G 9
  22389153.505    22389156.639     7959879.981 8   3779230.457 8
  19732926.963    19732929.215    -1998279.662 9  -5711979.669 8
  20887331.620    20887337.060    -6166955.084 9  -8888103.834 9
  22157477.613    22157480.378    -6670388.357 9  -2424873.207 8
 89 11 10 10 56 59.0800000  0  4G 2G 6G11G 9
  22404410.603    22404414.026     8040052.307 8   3841702.374 8
  19724333.731    19724336.425    -2043436.401 8  -5747166.727 9
  20869914.663    20869917.670    -6258488.866 9  -8959428.826 9
  22140834.788    22140836.646    -6757852.521 9  -2493027.076 9
 89 11 10 10 57 29.0800000  0  4G 2G 6G11G 9
  22419670.721    22419675.400     8120250.509 8   3904194.457 8
  19715782.320    19715783.872    -2088379.377 8  -5782187.213 8
  20852563.618    20852568.485    -6349663.229 9  -9030473.753 9
  22124192.235    22124193.758    -6845308.919 9  -2561174.910 9
 89 11 10 10 57 59.0800000  0  4G 2G 6G11G 9
  22434935.352    22434940.428     8200473.487 9   3966705.838 9
  19707270.636    19707271.764    -2133106.608 9  -5817039.583 8
  20835282.247    20835287.234    -6440475.559 9  -9101236.575 9
  22107550.560    22107554.684    -6932756.094 9  -2629315.553 8
 89 11 10 10 58 29.0800000  0  4G 2G 6G11G 9
  22450207.738    22450210.997     8280721.188 8   4029236.467 8
  19698800.871    19698802.534    -2177616.350 8  -5851722.499 9
  20818071.021    20818074.781    -6530923.271 9  -9171715.279 9
  22090912.093    22090913.699    -7020192.986 9  -2697448.172 8
 89 11 10 10 58 59.0800000  0  4G 2G 6G11G 9
  22465483.608    22465486.467     8360992.370 8   4091785.414 8
  19690371.890    19690374.395    -2221906.843 9  -5886234.581 8
  20800930.064    20800933.948    -6621003.938 9  -9241907.968 8
  22074275.572    22074278.008    -7107618.542 9  -2765571.957 8
 89 11 10 10 59 29.0800000  0  4G 2G 6G11G 9
  22480763.291    22480766.595     8441287.475 8   4154352.995 9
  19681985.720    19681988.109    -2265976.024 9  -5920574.179 8
  20783858.247    20783861.636    -6710715.346 9  -9311812.936 9
  22057642.145    22057644.072    -7195031.327 8  -2833685.790 9
 89 11 10 10 59 59.0800000  0  4G 2G 6G11G 9
  22496046.459    22496051.284     8521605.320 9   4216938.277 9
  19673642.268    19673643.935    -2309822.052 9  -5954739.902 8
  20766858.067    20766861.322    -6800054.661 9  -9381427.954 9
  22041009.545    22041012.497    -7282430.107 8  -2901788.708 8
 89 11 10 11  0 29.0800000  0  4G 2G 6G11G 9
  22511335.133    22511339.537     8601945.516 9   4279540.980 9
  19665340.986    19665343.986    -2353443.032 9  -5988730.283 9
  20749927.218    20749932.233    -6889019.171 9  -9450750.928 9
  22024380.216    22024384.693    -7369813.634 8  -2969879.724 9
 89 11 10 11  0 59.0800000  0  4G 2G 6G11G 9
  22526628.009    22526631.328     8682307.587 9   4342160.748 9
  19657084.235    19657086.904    -2396836.827 9  -6022543.638 8
  20733069.965    20733074.656    -6977606.388 9  -9519779.891 8
  22007756.411    22007757.257    -7457180.358 8  -3037957.645 8
 89 11 10 11  1 29.0800000  0  4G 2G 6G11G 9
  22541924.453    22541927.301     8762690.840 9   4404797.019 9
  19648871.087    19648872.951    -2440001.615 9  -6056178.514 8
  20716284.763    20716288.737    -7065813.824 9  -9588512.922 7
  21991134.944    21991135.449    -7544529.119 9  -3106021.602 7
 89 11 10 11  1 59.0800000  0  4G 2G 6G11G 9
  22557224.314    22557228.364     8843095.138 9   4467449.693 9
  19640699.819    19640702.426    -2482935.529 8  -6089633.505 8
  20699572.954    20699576.166    -7153639.259 9  -9656948.298 9
  21974516.048    21974519.290    -7631858.583 9  -3174070.550 8
 89 11 10 11  2 29.0800000  0  4G 2G 6G11G 9
  22572528.974    22572532.796     8923520.151 9   4530118.510 9
  19632574.531    19632575.969    -2525636.717 9  -6122907.145 8
  20682932.993    20682937.358    -7241080.507 9  -9725084.301 8
  21957902.501    21957903.021    -7719167.645 8  -3242103.540 9
 89 11 10 11  2 59.0800000  0  4G 2G 6G11G 9
  22587837.074    22587840.961     9003965.033 9   4592802.813 9
  19624493.619    19624495.090    -2568103.144 9  -6155997.859 8
  20666366.781    20666371.321    -7328134.734 9  -9792918.737 9
  21941292.236    21941293.501    -7806454.757 8  -3310119.440 8
 89 11 10 11  3 29.0800000  0  4G 2G 6G11G 9
  22603148.547    22603153.228     9084429.139 9   4655502.072 9
  19616457.729    19616459.369    -2610332.922 9  -6188904.170 8
  20649875.606    20649878.846    -7414799.513 9  -9860449.694 9
  21924685.826    21924687.692    -7893718.499 9  -3378117.121 8
 89 11 10 11  3 59.0800000  0  4G 2G 6G11G 9
  22618464.398    22618467.889     9164911.883 9   4718215.870 9
  19608466.808    19608469.240    -2652324.225 8  -6221624.674 7
  20633458.658    20633461.704    -7501072.488 9  -9927675.360 9
  21908084.496    21908086.677    -7980957.826 9  -3446095.793 8
 89 11 10 11  4 29.0800000  0  4G 2G 6G11G 9
  22633782.885    22633787.302     9245412.635 9   4780943.689 9
  19600521.670    19600524.559    -2694075.151 9  -6254157.864 8
  20617115.303    20617120.646    -7586951.404 9  -9994593.968 9
  21891489.698    21891490.384    -8068171.191 9  -3514054.243 8
 89 11 10 11  4 59.0800000  0  4G 2G 6G11G 9
  22649104.780    22649108.643     9325931.871 9   4843685.933 9
  19592623.508    19592625.525    -2735583.544 9  -6286502.050 7
  20600849.842    20600853.020    -7672433.701 9 -10061203.531 9
  21874898.385    21874899.124    -8155357.191 9  -3581991.381 7
 89 11 10 11  5 29.0800000  0  4G 2G 6G11G 9
  22664430.044    22664434.421     9406468.225 9   4906441.499 9
  19584770.896    19584771.894    -2776847.381 9  -6318655.679 8
  20584657.939    20584662.192    -7757517.052 9 -10127502.214 9
  21858311.707    21858313.986    -8242514.300 9  -3649906.010 8
 89 11 10 11  5 59.0800000  0  4G 2G 6G11G 9
  22679760.276    22679764.128     9487021.120 9   4969209.971 9
  19576965.559    19576967.348    -2817864.759 9  -6350617.263 8
  20568544.081    20568548.223    -7842199.066 9 -10193488.182 8
  21841732.184    21841734.339    -8329641.100 9  -3717796.983 8
 89 11 10 11  6 29.0800000  0  4G 2G 6G11G 9
  22695092.063    22695096.037     9567590.614 9   5031991.367 9
  19569206.896    19569208.776    -2858633.757 9  -6382385.312 8
  20552506.392    20552509.074    -7926477.646 9 -10259159.759 8
  21825158.853    21825161.310    -8416736.429 9  -3785663.474 7
 89 11 10 11  6 59.0800000  0  4G 2G 6G11G 9
  22710426.853    22710430.626     9648175.766 9   5094784.959 9
  19561496.736    19561498.502    -2899152.521 9  -6413958.359 8
  20536545.571    20536549.093    -8010350.120 9 -10324514.921 8
  21808591.643    21808593.635    -8503798.735 9  -3853504.220 8
 89 11 10 11  7 29.0800000  0  4G 2G 6G11G 9
  22725764.054    22725768.759     9728776.533 8   5157590.720 9
  19553834.831    19553835.937    -2939418.828 9  -6445334.683 8
  20520662.990    20520667.604    -8093814.270 9 -10389551.891 9
  21792030.353    21792032.883    -8590826.487 8  -3921318.040 7
 89 11 10 11  7 59.0800000  0  4G 2G 6G11G 9
  22741105.492    22741108.683     9809392.253 8   5220408.127 8
  19546220.243    19546223.550    -2979430.804 9  -6476512.857 8
  20504857.529    20504861.966    -8176868.021 9 -10454269.076 9
  21775477.057    21775477.757    -8677818.365 9  -3989103.898 8
 89 11 10 11  8 29.0800000  0  4G 2G 6G11G 9
  22756447.993    22756452.123     9890022.717 8   5283237.036 8
  19538654.952    19538656.673    -3019186.803 9  -6507491.537 8
  20489132.000    20489135.202    -8259509.084 9 -10518664.683 8
  21758929.967    21758930.838    -8764772.830 9  -4056860.609 8
 89 11 10 11  8 59.0800000  0  4G 2G 6G11G 9
  22771794.479    22771798.118     9970667.149 7   5346076.788 9
  19531139.113    19531140.054    -3058684.659 9  -6538269.085 7
  20473484.857    20473488.421    -8341735.339 9 -10582737.063 9
  21742390.480    21742391.917    -8851688.679 9  -4124587.244 8
 89 11 10 11  9 29.0800000  0  4G 2G 6G11G 9
  22787142.906    22787147.034    10051325.468 8   5408927.394 8
  19523672.490    19523674.974    -3097922.272 9  -6568843.847 8
  20457916.895    20457921.418    -8423544.125 9 -10646484.144 9
  21725857.364    21725859.986    -8938564.127 9  -4192282.378 9
 89 11 10 11  9 59.0800000  0  4G 2G 6G11G 9
  22802494.390    22802497.451    10131997.052 8   5471788.354 7
  19516255.362    19516258.309    -3136897.673 9  -6599214.292 8
  20442428.658    20442433.301    -8504933.102 9 -10709904.083 9
  21709334.179    21709337.933    -9025397.603 9  -4259944.814 9
 89 11 10 11 10 29.0800000  0  4G 2G 6G11G 9
  22817847.268    22817851.789    10212681.359 8   5534659.187 7
  19508888.856    19508890.445    -3175608.857 9  -6629378.835 7
  20427022.572    20427024.972    -8585900.465 9 -10772995.492 9
  21692818.545    21692820.986    -9112187.795 8  -4327573.499 8
 89 11 10 11 10 59.0800000  0  4G 2G 6G11G 9
  22833203.476    22833208.068    10293378.669 8   5597540.176 8
  19501572.391    19501576.410    -3214053.843 8  -6659335.979 8
  20411694.529    20411698.137    -8666443.964 9 -10835756.642 9
  21676311.291    21676314.091    -9198933.049 9  -4395167.165 8
 89 11 10 11 11 29.0800000  0  4G 2G 6G11G 9
  22848562.821    22848566.372    10374087.849 9   5660430.419 8
  19494308.761    19494310.647    -3252230.637 9  -6689084.123 8
  20396448.914    20396452.827    -8746561.208 9 -10898185.644 8
  21659813.227    21659815.357    -9285631.822 8  -4462724.622 8
 89 11 10 11 11 59.0800000  0  4G 2G 6G11G 9
  22863923.830    22863927.155    10454808.939 8   5723329.949 7
  19487095.457    19487096.998    -3290137.019 9  -6718621.554 8
  20381285.287    20381288.647    -8826249.687 9 -10960280.546 9
  21643323.093    21643325.801    -9372282.387 8  -4530244.520 8
 89 11 10 11 12 29.0800000  0  4G 2G 6G11G 9
  22879286.583    22879289.836    10535541.338 9   5786238.302 8
  19479933.463    19479935.337    -3327770.993 9  -6747946.719 8
  20366203.022    20366206.397    -8905507.508 9 -11022039.858 8
  21626845.384    21626846.116    -9458883.403 8  -4597725.800 8
 89 11 10 11 12 59.0800000  0  4G 2G 6G11G 9
  22894651.854    22894655.848    10616285.135 9   5849155.519 8
  19472825.053    19472826.046    -3365130.712 9  -6777058.173 8
  20351202.329    20351206.614    -8984332.396 9 -11083461.828 9
  21610373.809    21610376.859    -9545433.201 8  -4665167.177 8
 89 11 10 11 13 29.0800000  0  4G 2G 6G11G 9
  22910018.592    22910022.283    10697039.390 9   5912080.891 8
  19465768.088    19465768.914    -3402213.911 9  -6805954.171 9
  20336285.232    20336289.274    -9062722.481 9 -11144544.993 8
  21593914.565    21593917.742    -9631930.110 9  -4732567.350 7
 89 11 10 11 13 59.0800000  0  4G 2G 6G11G 9
  22925387.953    22925392.295    10777803.816 9   5975014.197 8
  19458763.524    19458765.017    -3439018.931 9  -6834633.413 8
  20321451.310    20321454.899    -9140675.553 9 -11205287.614 9
  21577465.258    21577467.627    -9718372.644 9  -4799925.153 8
 89 11 10 11 14 29.0800000  0  4G 2G 6G11G 9
  22940758.551    22940762.401    10858577.887 9   6037955.018 7
  19451813.528    19451815.706    -3475543.619 9  -6863094.201 7
  20306700.290    20306704.765    -9218189.269 9 -11265687.881 9
  21561026.182    21561028.221    -9804759.256 9  -4867239.352 8
 89 11 10 11 14 59.0800000  0  4G 2G 6G11G 9
  22956132.410    22956134.498    10939361.479 9   6100903.240 8
  19444917.066    19444918.964    -3511785.952 9  -6891334.977 8
  20292033.948    20292038.728    -9295261.714 8 -11325744.297 8
  21544598.465    21544600.009    -9891088.401 8  -4934508.777 8
 89 11 10 11 15 29.0800000  0  4G 2G 6G11G 9
  22971505.735    22971509.395    11020154.031 9   6163858.452 9
  19438074.135    19438075.475    -3547743.898 9  -6919354.160 8
  20277452.602    20277455.973    -9371890.979 9 -11385455.370 9
  21528183.090    21528183.974    -9977358.309 9  -5001732.063 9
 89 11 10 11 15 59.0800000  0  4G 2G 6G11G 9
  22986881.939    22986885.446    11100955.004 9   6226820.221 9
  19431286.276    19431288.545    -3583415.660 9  -6947150.335 9
  20262954.111    20262959.762    -9448075.012 9 -11444819.534 8
  21511777.626    21511777.598   -10063567.464 9  -5068908.020 8
 89 11 10 11 16 29.0800000  0  4G 2G 6G11G 9
  23002260.172    23002262.646    11181764.765 6   6289788.849 4
  19424552.849    19424554.778    -3618798.742 9  -6974721.561 8
  20248543.551    20248546.485    -9523811.593 9 -11503835.018 8
  21495383.977    21495383.611   -10149713.919 9  -5136035.132 7
 89 11 10 11 16 59.0800000  0  4G 2G 6G11G 9
  23017638.798    23017640.652    11262582.244 9   6352763.493 8
  19417875.411    19417877.382    -3653891.247 9  -7002066.363 8
  20234216.580    20234219.364    -9599098.743 9 -11562500.311 8
  21479002.465    21479004.716   -10235796.170 8  -5203112.208 8
 89 11 10 11 17 29.0800000  0  4G 2G 6G11G 9
  23033018.815    23033022.792    11343407.656 9   6415744.318 9
  19411251.760    19411254.548    -3688691.218 9  -7029183.230 8
  20219975.374    20219978.099    -9673934.413 9 -11620813.788 8
  21462634.651    21462636.861   -10321812.356 9  -5270137.793 8
 89 11 10 11 17 59.0800000  0  4G 2G 6G11G 9
  23048400.224    23048404.271    11424240.914 9   6478731.240 9
  19404685.854    19404688.821    -3723196.598 9  -7056070.526 9
  20205821.047    20205824.914    -9748316.572 9 -11678773.899 8
  21446278.619    21446281.093   -10407761.026 9  -5337110.772 7
 89 11 10 11 18 29.0800000  0  4G 2G 6G11G 9
  23063785.347    23063788.280    11505081.360 9   6541723.785 9
  19398176.282    19398178.751    -3757405.395 9  -7082726.746 8
  20191752.927    20191755.134    -9822243.159 8 -11736379.004 8
  21429935.956    21429938.175   -10493640.496 9  -5404029.813 7
 89 11 10 11 18 59.0800000  0  4G 2G 6G11G 9
  23079169.760    23079173.362    11585928.659 8   6604721.628 9
  19391722.658    19391725.480    -3791315.449 9  -7109150.154 9
  20177771.986    20177774.980    -9895712.330 9 -11793627.691 9
  21413608.485    21413607.883   -10579448.775 9  -5470893.386 8
 89 11 10 11 19 29.0800000  0  4G 2G 6G11G 9
  23094554.703    23094558.451    11666782.221 8   6667724.380 9
  19385327.539    19385328.689    -3824924.848 9  -7135339.285 8
  20163879.379    20163883.263    -9968722.261 9 -11850518.522 9
  21397292.923    21397295.076   -10665184.388 9  -5537700.358 7
 89 11 10 11 19 59.0800000  0  4G 2G 6G11G 9
  23109942.465    23109946.240    11747642.184 6   6730732.073 8
  19378990.532    19378991.552    -3858231.364 9  -7161292.406 8
  20150072.743    20150076.246   -10041270.529 9 -11907049.618 8
  21380990.812    21380993.786   -10750845.495 9  -5604449.262 7
 89 11 10 11 20 29.0800000  0  4G 2G 6G11G 9
  23125330.221    23125334.541    11828508.394 7   6793744.647 8
  19372710.309    19372711.089    -3891232.980 9  -7187007.935 9
  20136356.775    20136359.614   -10113355.502 9 -11963219.705 8
  21364705.163    21364707.393   -10836430.136 9  -5671138.564 8
 89 11 10 11 20 59.0800000  0  4G 2G 6G11G 9
  23140719.831    23140723.650    11909380.240 6   6856761.624 8
  19366487.850    19366490.549    -3923927.635 9  -7212484.282 9
  20122727.711    20122730.834   -10184975.530 9 -12019027.491 8
  21348433.736    21348436.537   -10921936.653 9  -5737767.010 8
 89 11 10 11 21 29.0800000  0  4G 2G 6G11G 9
  23156109.354    23156114.120    11990257.350 7   6919782.681 8
  19360324.552    19360327.350    -3956313.475 9  -7237719.988 9
  20109187.997    20109190.752   -10256128.615 9 -12074471.431 7
  21332177.984    21332180.181   -11007363.475 9  -5804333.359 7
 89 11 10 11 21 59.0800000  0  4G 2G 6G11G 9
  23171500.693    23171505.799    12071139.111 7   6982807.384 8
  19354222.658    19354223.900    -3988388.573 9  -7262713.591 8
  20095737.073    20095739.755   -10326813.185 9 -12129550.303 8
  21315936.516    21315940.328   -11092708.714 9  -5870836.120 8
 89 11 10 11 22 29.0800000  0  4G 2G 6G11G 9
  23186894.512    23186897.759    12152025.854 8   7045835.980 8
  19348177.541    19348178.905    -4020150.469 9  -7287463.120 7
  20082375.484    20082378.720   -10397026.823 9 -12184262.187 8
  21299712.745    21299715.342   -11177970.476 9  -5937273.826 8
 89 11 10 11 22 59.0800000  0  4G 2G 6G11G 9
  23202287.251    23202291.109    12232917.453 8   7108868.368 8
  19342193.799    19342195.829    -4051597.008 9  -7311966.901 8
  20069104.270    20069106.985   -10466767.814 9 -12238605.800 9
  21283504.143    21283505.403   -11263146.755 9  -6003644.935 8
 89 11 10 11 23 29.0800000  0  4G 2G 6G11G 9
  23217682.051    23217686.111    12313813.270 8   7171904.030 7
  19336270.074    19336272.401    -4082726.306 9  -7336223.493 7
  20055924.128    20055926.185   -10536034.341 9 -12292579.704 8
  21267312.666    21267315.342   -11348235.866 9  -6069948.148 8
 89 11 10 11 23 59.0800000  0  4G 2G 6G11G 9
  23233075.059    23233080.046    12394713.245 8   7234942.962 8
  19330406.016    19330407.659    -4113536.479 9  -7360231.414 8
  20042831.869    20042836.778   -10604824.605 9 -12346182.485 8
  21251136.624    21251139.440   -11433235.968 9  -6136181.985 8
 89 11 10 11 24 29.0800000  0  4G 2G 6G11G 9
  23248471.536    23248474.741    12475617.118 9   7297984.910 7
  19324605.971    19324607.181    -4144025.298 9  -7383988.929 8
  20029832.859    20029836.465   -10673136.897 9 -12399412.815 8
  21234979.872    21234981.755   -11518145.291 9  -6202345.064 8
 89 11 10 11 24 59.0800000  0  4G 2G 6G11G 9
  23263867.655    23263871.818    12556524.576 9   7361029.670 7
  19318864.643    19318866.915    -4174190.905 9  -7407494.608 8
  20016925.358    20016928.380   -10740969.681 9 -12452269.514 9
  21218840.695    21218840.930   -11602961.934 9  -6268435.917 8
 89 11 10 11 25 29.0800000  0  4G 2G 6G11G 9
  23279263.990    23279267.941    12637435.131 9   7424076.849 6
  19313186.968    19313187.872    -4204031.176 9  -7430746.769 8
  20004108.578    20004112.626   -10808321.248 9 -12504751.245 8
  21202716.946    21202719.905   -11687684.125 9  -6334453.203 8
 89 11 10 11 25 59.0800000  0  4G 2G 6G11G 9
  23294661.514    23294666.807    12718348.558 9   7487126.234 6
  19307570.360    19307572.145    -4233544.049 9  -7453743.800 8
  19991383.878    19991386.437   -10875189.660 9 -12556856.477 8
  21186613.457    21186615.449   -11772310.085 9  -6400395.501 8
 89 11 10 11 26 29.0800000  0  4G 2G 6G11G 9
  23310058.885    23310061.985    12799264.441 9   7550177.585 6
  19302016.781    19302017.652    -4262727.739 9  -7476484.336 8
  19978751.827    19978753.915   -10941573.453 9 -12608584.086 8
  21170529.145    21170530.433   -11856837.796 9  -6466261.232 9
 89 11 10 11 26 59.0800000  0  4G 2G 6G11G 9
  23325457.848    23325462.334    12880183.257 9   7613231.215 6
  19296526.161    19296528.483    -4291579.789 9  -7498966.457 8
  19966211.689    19966214.645   -11007470.946 9 -12659932.751 9
  21154463.526    21154464.916   -11941265.271 9  -6532048.844 8
 89 11 10 11 27 29.0800000  0  4G 2G 6G11G 9
  23340856.513    23340861.736    12961104.499 9   7676286.736 7
  19291099.623    19291101.583    -4320098.249 9  -7521188.620 8
  19953764.590    19953769.964   -11072880.214 9 -12710901.006 8
  21138416.130    21138418.656   -12025590.501 9  -6597756.804 8
 89 11 10 11 27 59.0800000  0  4G 2G 6G11G 9
  23356256.296    23356259.938    13042027.912 9   7739343.940 7
  19285736.816    19285738.386    -4348281.176 9  -7543149.342 9
  19941410.568    19941414.882   -11137799.705 9 -12761487.591 8
  21122389.276    21122390.864   -12109811.728 9  -6663383.730 7
 89 11 10 11 28 29.0800000  0  4G 2G 6G11G 9
  23371655.709    23371659.057    13122953.110 9   7802402.543 7
  19280437.838    19280440.195    -4376126.576 9  -7564847.062 8
  19929149.871    19929154.720   -11202228.090 9 -12811691.508 8
  21106382.819    21106385.246   -12193926.984 9  -6728928.070 8
 89 11 10 11 28 59.0800000  0  4G 2G 6G11G 9
  23387055.364    23387057.967    13203880.173 9   7865462.574 7
  19275204.037    19275205.842    -4403632.291 8  -7586280.081 8
  19916982.988    19916987.779   -11266163.533 9 -12861511.323 8
  21090396.551    21090397.852   -12277934.392 9  -6794388.376 9
 89 11 10 11 29 29.0800000  0  4G 2G 6G11G 9
  23402456.050    23402460.656    13284808.458 9   7928523.545 8
  19270034.549    19270035.844    -4430796.673 9  -7607447.120 8
  19904910.882    19904914.586   -11329604.508 9 -12910945.816 9
  21074430.614    21074433.152   -12361832.236 9  -6859763.288 9
 89 11 10 11 29 59.0800000  0  4G 2G 6G11G 9
  23417855.795    23417859.380    13365738.059 9   7991585.561 8
  19264930.496    19264932.574    -4457617.466 9  -7628346.428 8
  19892933.491    19892936.853   -11392549.711 9 -12959994.017 8
  21058487.303    21058489.440   -12445618.380 9  -6925051.196 8
 89 11 10 11 30 29.0800000  0  4G 2G 6G11G 9
  23433256.844    23433261.489    13446668.716 9   8054648.384 8
  19259891.511    19259895.598    -4484092.427 8  -7648976.268 8
  19881048.904    19881054.967   -11454997.608 9 -13008654.694 8
  21042564.520    21042566.940   -12529290.480 9  -6990250.222 9
 89 11 10 11 30 59.0800000  0  4G 2G 6G11G 9
  23448658.062    23448662.259    13527600.337 9   8117711.957 9
  19254919.726    19254922.825    -4510219.676 9  -7669335.159 8
  19869261.544    19869264.869   -11516946.420 9 -13056926.469 8
  21026665.609    21026667.079   -12612846.875 9  -7055359.067 8
 89 11 10 11 31 29.0800000  0  4G 2G 6G11G 9
  23464058.348    23464063.369    13608532.703 8   8180776.106 8
  19250015.642    19250018.362    -4535997.172 8  -7689421.520 8
  19857568.501    19857570.748   -11578394.783 9 -13104808.298 8
  21010787.475    21010787.957   -12696285.482 9  -7120376.129 8
 89 11 10 11 31 59.0800000  0  4G 2G 6G11G 9
  23479460.111    23479463.480    13689465.015 8   8243840.227 9
  19245177.036    19245179.671    -4561422.924 9  -7709233.784 8
  19845970.208    19845974.262   -11639341.014 9 -13152298.846 8
  20994932.403    20994933.274   -12779604.266 9  -7185299.854 7
 89 11 10 11 32 29.0800000  0  4G 2G 6G11G 9
  23494859.406    23494864.370    13770397.824 6   8306904.708 8
  19240404.833    19240406.936    -4586494.905 9  -7728770.384 7
  19834468.058    19834471.984   -11699783.796 9 -13199397.093 8
  20979099.717    20979101.340   -12862801.087 9  -7250128.558 7
 89 11 10 11 32 59.0800000  0  4G 2G 6G11G 9
  23510259.745    23510265.138    13851330.727 5   8369969.275 9
  19235702.118    19235704.078    -4611210.953 9  -7748029.644 8
  19823062.163    19823066.601   -11759721.820 9 -13246102.026 8
  20963291.890    20963293.062   -12945874.201 9  -7314860.825 9
 89 11 10 11 33 29.0800000  0  4G 2G 6G11G 9
  23525664.727    23525665.728    13932263.532 3   8433033.731 9
  19231067.673    19231069.223    -4635569.211 9  -7767010.121 8
  19811753.855    19811756.477   -11819153.443 9 -13292412.358 8
  20947507.514    20947509.613   -13028821.230 9  -7379494.852 8
 89 11 10 11 33 59.0800000  0  4G 2G 6G11G 9
  23541064.399    23541067.622    14013196.498 3   8496098.203 9
  19226499.866    19226502.130    -4659567.368 9  -7785709.980 8
  19800539.890    19800543.597   -11878077.176 9 -13338326.917 9
  20931747.868    20931748.826   -13111640.088 9  -7444029.011 8
 89 11 10 11 34 29.0800000  0  4G 2G 6G11G 9
  23556465.479    23556468.567    14094128.243 8   8559161.843 9
  19222003.456    19222005.126    -4683203.928 9  -7804128.072 8
  19789424.385    19789428.136   -11936492.085 9 -13383844.999 9
  20916012.080    20916014.531   -13194329.067 9  -7508461.980 7
 89 11 10 11 34 59.0800000  0  4G 2G 6G11G 9
  23571864.827    23571868.675    14175059.583 8   8622225.182 8
  19217575.100    19217575.739    -4706476.727 9  -7822262.722 8
  19778404.955    19778409.281   -11994396.766 9 -13428965.511 7
  20900301.860    20900304.140   -13276886.274 9  -7572792.244 8
 89 11 10 11 35 29.0800000  0  4G 2G 6G11G 9
  23587265.532    23587269.474    14255990.286 9   8685288.049 9
  19213215.381    19213217.421    -4729383.588 9  -7840112.224 8
  19767483.698    19767487.221   -12051789.832 9 -13473687.383 8
  20884616.785    20884619.647   -13359309.037 9  -7637017.771 7
 89 11 10 11 35 59.0800000  0  4G 2G 6G11G 9
  23602666.444    23602670.346    14336920.228 9   8748350.322 8
  19208925.492    19208926.575    -4751922.440 9  -7857674.961 8
  19756660.160    19756664.119   -12108669.667 9 -13518009.304 8
  20868957.966    20868960.382   -13441595.397 9  -7701136.986 7
 89 11 10 11 36 29.0800000  0  4G 2G 6G11G 9
  23618065.856    23618070.216    14417848.944 9   8811411.648 8
  19204707.605    19204709.626    -4774091.355 9  -7874949.444 8
  19745934.028    19745937.887   -12165034.937 9 -13561930.281 8
  20853327.129    20853328.262   -13523743.272 9  -7765148.302 8
 89 11 10 11 36 59.0800000  0  4G 2G 6G11G 9
  23633465.567    23633470.485    14498776.800 9   8874472.281 8
  19200560.517    19200561.788    -4795888.656 9  -7891934.354 8
  19735306.045    19735308.882   -12220885.045 9 -13605449.839 9
  20837721.164    20837721.885   -13605750.736 9  -7829050.231 8
 89 11 10 11 37 29.0800000  0  4G 2G 6G11G 9
  23648866.457    23648870.697    14579703.575 9   8937532.107 7
  19196483.286    19196484.827    -4817311.884 9  -7908627.791 8
  19724776.840    19724779.812   -12276218.034 9 -13648566.435 8
  20822141.584    20822144.084   -13687615.379 9  -7892840.837 8
 89 11 10 11 37 59.0800000  0  4G 2G 6G11G 9
  23664265.536    23664269.618    14660628.887 9   9000590.771 8
  19192477.542    19192479.212    -4838359.351 9  -7925028.399 9
  19714345.285    19714349.974   -12331032.956 9 -13691279.346 9
  20806591.836    20806594.357   -13769335.107 9  -7956518.521 8
 89 11 10 11 38 29.0800000  0  4G 2G 6G11G 9
  23679664.611    23679669.243    14741552.440 9   9063648.087 6
  19188544.587    19188546.860    -4859028.923 9  -7941134.573 9
  19704013.801    19704016.067   -12385328.550 9 -13733587.583 9
  20791070.504    20791071.766   -13850907.653 9  -8020081.536 8
 89 11 10 11 38 59.0800000  0  4G 2G 6G11G 9
  23695064.238    23695067.742    14822474.461 9   9126704.201 7
  19184683.762    19184685.100    -4879318.680 9  -7956944.766 8
  19693780.971    19693784.508   -12439103.466 9 -13775490.099 7
  20775574.889    20775576.384   -13932331.290 9  -8083528.518 8
 89 11 10 11 39 29.0800000  0  4G 2G 6G11G 9
  23710462.306    23710467.185    14903394.478 9   9189758.763 5
  19180894.624    19180895.906    -4899226.771 9  -7972457.551 8
  19683647.494    19683650.301   -12492356.704 9 -13816986.105 9
  20760109.501    20760111.939   -14013603.804 9  -8146857.729 8
 89 11 10 11 39 59.0800000  0  4G 2G 6G11G 9
  23725860.326    23725863.181    14984312.600 9   9252811.843 6
  19177179.295    19177181.558    -4918751.165 9  -7987671.373 8
  19673612.549    19673614.761   -12545087.228 8 -13858074.794 8
  20744672.645    20744673.334   -14094722.602 9  -8210067.160 8
 89 11 10 11 40 29.0800000  0  4G 2G 6G11G 9
  23741258.357    23741262.184    15065229.088 9   9315863.687 5
  19173538.076    19173539.732    -4937889.916 9  -8002584.692 7
  19663677.170    19663681.799   -12597294.078 9 -13898755.453 8
  20729265.497    20729267.241   -14175685.812 9  -8273155.363 8
 89 11 10 11 40 59.0800000  0  4G 2G 6G11G 9
  23756656.278    23756659.169    15146143.458 9   9378913.885 4
  19169969.896    19169972.387    -4956641.155 9  -8017196.047 8
  19653842.479    19653845.269   -12648976.038 9 -13939027.096 8
  20713889.892    20713891.135   -14256491.200 9  -8336120.587 8
 89 11 10 11 41 29.0800000  0  4G 2G 6G11G 9
  23772053.112    23772057.847    15227055.415 9   9441962.197 6
  19166474.825    19166478.757    -4975002.734 9  -8031503.759 7
  19644107.671    19644111.009   -12700131.989 9 -13978888.859 8
  20698542.738    20698545.229   -14337136.240 9  -8398960.870 9
 89 11 10 11 41 59.0800000  0  4G 2G 6G11G 9
  23787449.923    23787454.832    15307965.685 9   9505009.155 6
  19163055.616    19163057.571    -4992972.854 8  -8045506.450 8
  19634474.575    19634477.049   -12750760.895 9 -14018339.945 8
  20683227.778    20683229.743   -14417619.020 9  -8461674.704 7
 89 11 10 11 42 29.0800000  0  4G 2G 6G11G 9
  23802846.450    23802849.929    15388873.487 8   9568054.194 6
  19159710.194    19159712.206    -5010549.504 9  -8059202.553 8
  19624940.088    19624943.302   -12800861.944 9 -14057379.697 8
  20667943.658    20667945.429   -14497937.154 9  -8524260.260 7
 89 11 10 11 42 59.0800000  0  4G 2G 6G11G 9
  23818242.022    23818246.028    15469779.209 8   9631097.586 6
  19156441.849    19156444.004    -5027730.100 9  -8072590.010 8
  19615506.740    19615511.303   -12850433.231 9 -14096006.669 7
  20652691.296    20652693.007   -14578087.820 9  -8586715.308 9
 89 11 10 11 43 29.0800000  0  4G 2G 6G11G 9
  23833637.486    23833641.538    15550682.374 7   9694138.988 7
  19153247.842    19153250.424    -5044513.304 9  -8085667.848 8
  19606174.550    19606178.394   -12899474.242 9 -14134220.432 7
  20637471.462    20637472.931   -14658069.179 9  -8649038.420 8
 89 11 10 11 43 59.0800000  0  4G 2G 6G11G 9
  23849032.443    23849036.551    15631582.888 8   9757178.302 7
  19150129.757    19150131.812    -5060897.321 8  -8098434.623 8
  19596943.603    19596947.119   -12947984.315 9 -14172020.476 7
  20622284.419    20622285.303   -14737879.367 9  -8711228.159 8
 89 11 10 11 44 29.0800000  0  4G 2G 6G11G 9
  23864425.708    23864430.822    15712480.378 7   9820215.261 7
  19147087.458    19147091.128    -5076880.259 8  -8110888.863 8
  19587813.654    19587816.968   -12995962.340 9 -14209405.921 7
  20607130.080    20607131.989   -14817515.971 9  -8773282.660 8
 89 11 10 11 44 59.0800000  0  4G 2G 6G11G 9
  23879820.127    23879825.524    15793375.682 8   9883250.551 7
  19144123.688    19144126.072    -5092460.293 9  -8123029.136 8
  19578784.603    19578788.123   -13043407.225 9 -14246375.949 7
  20592008.701    20592010.996   -14896976.659 9  -8835200.052 8
 89 11 10 11 45 29.0800000  0  4G 2G 6G11G 9
  23895213.003    23895217.726    15874268.219 7   9946283.641 7
  19141236.610    19141238.050    -5107635.518 9  -8134853.993 9
  19569858.355    19569861.765   -13090318.489 9 -14282930.183 7
  20576922.225    20576923.957   -14976259.305 9  -8896978.722 9
 89 11 10 11 45 59.0800000  0  4G 2G 6G11G 9
  23910605.070    23910610.643    15955157.870 7  10009314.487 7
  19138425.264    19138427.778    -5122404.124 9  -8146361.987 7
  19561032.302    19561035.576   -13136695.335 9 -14319067.966 8
  20561868.501    20561871.637   -15055361.531 9  -8958616.811 9
 89 11 10 11 46 29.0800000  0  4G 2G 6G11G 9
  23925998.766    23926004.583    16036044.508 6  10072342.995 8
  19135692.670    19135695.854    -5136764.096 8  -8157551.592 8
  19552309.510    19552312.683   -13182536.883 9 -14354788.638 7
  20546851.466    20546853.760   -15134281.040 9  -9020112.511 8
 89 11 10 11 46 59.0800000  0  4G 2G 6G11G 9
  23941390.008    23941395.521    16116928.488 6  10135369.421 7
  19133038.608    19133040.201    -5150713.377 9  -8168421.151 8
  19543688.660    19543692.055   -13227841.862 9 -14390091.208 8
  20531869.521    20531870.405   -15213015.142 9  -9081463.739 8
 89 11 10 11 47 29.0800000  0  4G 2G 6G11G 9
  23956781.987    23956786.193    16197809.553 8  10198393.594 8
  19130463.199    19130464.897    -5164250.217 9  -8178969.357 7
  19535169.791    19535172.840   -13272609.767 9 -14424975.266 8
  20516921.068    20516923.029   -15291561.753 9  -9142668.882 8
 89 11 10 11 47 59.0800000  0  4G 2G 6G11G 9
  23972172.734    23972175.656    16278687.432 8  10261415.265 7
  19127965.031    19127968.015    -5177372.732 9  -8189194.684 8
  19526752.469    19526756.412   -13316839.704 9 -14459440.147 8
  20502010.240    20502012.662   -15369918.538 9  -9203726.112 8
 89 11 10 11 48 29.0800000  0  4G 2G 6G11G 9
  23987563.588    23987567.013    16359562.139 8  10324434.464 8
  19125548.316    19125548.500    -5190079.373 9  -8199095.954 8
  19518437.741    19518441.342   -13360531.143 9 -14493485.403 7
  20487136.010    20487138.112   -15448083.367 9  -9264633.753 8
 89 11 10 11 48 59.0800000  0  4G 2G 6G11G 9
  24002951.921    24002955.444    16440433.982 9  10387451.415 9
  19123209.193    19123210.680    -5202367.882 9  -8208671.423 8
  19510226.578    19510230.556   -13403682.942 9 -14527110.172 8
  20472299.884    20472300.740   -15526053.658 9  -9325389.810 8
 89 11 10 11 49 29.0800000  0  4G 2G 6G11G 9
  24018341.022    24018344.558    16521302.857 8  10450466.085 8
  19120950.882    19120953.193    -5214236.523 9  -8217919.717 7
  19502117.973    19502121.526   -13446294.462 9 -14560313.934 7
  20457499.632    20457502.404   -15603826.795 9  -9385992.253 8
 89 11 10 11 49 59.0800000  0  4G 2G 6G11G 9
  24033728.494    24033732.944    16602168.503 8  10513478.236 8
  19118771.083    19118773.642    -5225683.500 9  -8226839.436 8
  19494112.547    19494116.379   -13488365.276 9 -14593096.367 8
  20442738.365    20442741.340   -15681400.725 9  -9446439.455 8
 89 11 10 11 50 29.0800000  0  4G 2G 6G11G 9
  24049116.033    24049121.148    16683031.062 9  10576487.979 9
  19116673.758    19116677.228    -5236707.136 8  -8235429.297 7
  19486208.452    19486212.580   -13529894.608 9 -14625456.874 8
  20428015.142    20428016.302   -15758773.117 9  -9506729.586 8
 89 11 10 11 50 59.0800000  0  4G 2G 6G11G 9
  24064503.761    24064508.999    16763890.831 9  10639495.544 9
  19114657.266    19114659.336    -5247305.668 9  -8243687.883 8
  19478409.171    19478412.760   -13570881.673 8 -14657394.834 8
  20413330.147    20413331.645   -15835941.603 9  -9566860.872 8
 89 11 10 11 51 29.0800000  0  4G 2G 6G11G 9
  24079889.815    24079894.481    16844747.537 9  10702500.734 7
  19112722.911    19112724.726    -5257477.285 8  -8251613.797 7
  19470713.069    19470716.910   -13611326.241 9 -14688910.053 8
  20398684.311    20398685.373   -15912903.639 9  -9626831.270 8
 89 11 10 11 51 59.0800000  0  4G 2G 6G11G 9
  24095275.599    24095280.310    16925601.203 9  10765503.537 8
  19110867.226    19110870.188    -5267220.037 9  -8259205.560 8
  19463120.504    19463124.665   -13651227.556 9 -14720001.974 8
  20384078.304    20384079.642   -15989656.965 9  -9686639.025 8
 89 11 10 11 52 29.0800000  0  4G 2G 6G11G 9
  24110661.057    24110667.070    17006451.974 9  10828504.062 8
  19109096.474    19109097.042    -5276532.391 9  -8266461.932 8
  19455632.083    19455634.860   -13690585.080 9 -14750670.158 9
  20369513.018    20369513.876   -16066199.150 9  -9746282.273 7
 89 11 10 11 52 59.0800000  0  4G 2G 6G11G 9
  24126045.975    24126050.171    17087299.160 9  10891501.827 8
  19107405.689    19107409.361    -5285412.366 9  -8273381.402 9
  19448245.198    19448249.677   -13729398.001 9 -14780913.968 8
  20354988.610    20354989.300   -16142527.832 9  -9805759.149 8
 89 11 10 11 53 29.0800000  0  4G 2G 6G11G 9
  24141430.561    24141434.786    17168144.589 9  10954498.214 8
  19105797.552    19105802.038    -5293858.068 9  -8279962.482 8
  19440963.371    19440967.855   -13767665.551 8 -14810732.826 8
  20340505.154    20340506.935   -16218640.158 9  -9865067.445 8
 89 11 10 11 53 59.0800000  0  4G 2G 6G11G 9
  24156814.008    24156822.930    17248986.796 7  11017492.094 3
  19104273.740    19104277.200    -5301868.003 9  -8286203.986 8
  19433784.898    19433787.951   -13805387.430 9 -14840126.477 8
  20326061.995    20326064.725   -16294534.084 8  -9924205.549 8
